Guayaquil, Ecuador

11:34 AM -05 en Abril 25, 2018 (GMT -0500)
Jose Joaquin de Olmedo

Tiempo Historia de SEGU - Abril, 2018

Change the Weather History Date:

Lunes, Abril 16, 2018

  Actual Average Record
Temperature  
Temperatura media 82 ° F -  
Temperatura máxima 91 ° F 84 ° F 93 ° F (1998)
Temperatura mínima 74 ° F 71 ° F 73 ° F (1999)
Cooling Degree Days 18    
Growing Degree Days 32 (Base 50)    
Moisture  
Punto de rocío 64 ° F    
Average Humidity 53    
Maximum Humidity 65    
Minimum Humidity 36    
Precipitación  
Precipitación 0.00 pul 0.14 pul - ()
Presión al nivel del mar  
Presión al nivel del mar 29.88 pul    
Viento  
Velocidad del viento 6 mph ()    
Velocidad máxima del viento 13 mph    
Max Gust Speed -    
Visibilidad 6.2 Millas    
Eventos      
Averages and records for this station are not official NWS values.
T = Trace of Precipitation, MM = Missing Value Source: Averaged Metar Reports

Daily Weather History Graph

Daily Weather History Graph

Search for Another Location

Airport or City:

Astronomía

Apr. 16, 2018 Salida Puesta
Hora real 6:17 AM -05 6:21 PM -05
Crepúsculo civil 5:56 AM -05 6:42 PM -05
Crepúsculo náutico 5:32 AM -05 7:06 PM -05
Crepúsculo astronómico 5:07 AM -05 7:30 PM -05
Luna 6:48 AM -05 (4/16) 7:09 PM -05 (4/16)
Horas de luz 12h 45m
Horas de luz
12h 03m
Luna nueva, 0% of the Moon is Illuminated
Abr 16
Luna nueva
Abr 22
Cuarto creciente
Abr 29
Luna llena
May 7
Cuarto menguante
May 15
Nueva

Hourly Weather History & Observations

Hora (-05) Temp. Índice de calor Punto de rocío Humedad Presión Visibilidad Wind Dir Velocidad del viento Velocidad de ráfagas Precip Eventos Condiciones
12:00 AM 75.2 ° F - 55.4 ° F 50% 29.89 pul 6.2 mi SO 9.2 mph - N/A   Nubes dispersas
1:00 AM 75.2 ° F - 55.4 ° F 50% 29.89 pul - SO 12.7 mph - N/A   Despejado
2:00 AM 73.4 ° F - 55.4 ° F 53% - - SO 10.4 mph - N/A   Despejado
3:00 AM 73.4 ° F - 55.4 ° F 53% - 6.2 mi SO 8.1 mph - N/A   Muy nublado
4:00 AM 77.0 ° F - 59.0 ° F 54% 29.86 pul 6.2 mi SSO 3.5 mph - N/A   Nubes dispersas
5:00 AM 77.0 ° F - 57.2 ° F 50% 29.89 pul 6.2 mi ONO 3.5 mph - N/A   Muy nublado
6:00 AM 77.0 ° F - 57.2 ° F 50% 29.89 pul 6.2 mi ONO 4.6 mph - N/A   Muy nublado
7:00 AM 77 ° F - 61 ° F 48% 29.92 pul 6 mi Sin viento Sin viento - -   Bruma
7:00 AM 77.0 ° F - 60.8 ° F 57% 29.92 pul 6.2 mi Sin viento Sin viento - N/A   Muy nublado
8:00 AM 80.6 ° F 82.3 ° F 64.4 ° F 58% 29.92 pul 6.2 mi ENE 3.5 mph - N/A   Muy nublado
9:00 AM 82.4 ° F 83.9 ° F 64.4 ° F 54% 29.95 pul 6.2 mi NE 3.5 mph - N/A   Muy nublado
10:00 AM 85 ° F - 69 ° F 49% 29.94 pul 6 mi Este 3.5 mph - -   Bruma
10:00 AM 84.2 ° F 87.3 ° F 68.0 ° F 58% 29.92 pul 6.2 mi Este 3.5 mph - N/A   Muy nublado
11:00 AM 86.0 ° F 89.4 ° F 68.0 ° F 55% 29.92 pul - SE 3.5 mph - N/A   Despejado
12:00 PM 87.8 ° F 90.4 ° F 66.2 ° F 49% 29.89 pul 6.2 mi SE 3.5 mph - N/A   Parcialmente nublado
1:00 PM 89 ° F - 66 ° F 36% 29.88 pul 6 mi SSE 5.8 mph - -   Bruma
1:00 PM 89.6 ° F 92.2 ° F 66.2 ° F 46% 29.86 pul 6.2 mi SSE 5.8 mph - N/A   Nubes dispersas
2:00 PM 91.4 ° F 95.4 ° F 68.0 ° F 46% 29.83 pul 6.2 mi Este 3.5 mph - N/A   Nubes dispersas
4:00 PM 90 ° F - 69 ° F 41% 29.81 pul 6 mi NE 8.1 mph - -   Bruma
4:00 PM 89.6 ° F 94.7 ° F 69.8 ° F 52% 29.80 pul 6.2 mi NE 8.1 mph - N/A   Nubes dispersas
5:00 PM 89.6 ° F 94.7 ° F 69.8 ° F 52% 29.77 pul 6.2 mi NE 6.9 mph - N/A   Nubes dispersas
6:00 PM 86.0 ° F 90.4 ° F 69.8 ° F 58% 29.80 pul 6.2 mi SSE 3.5 mph - N/A   Parcialmente nublado
7:00 PM 83 ° F - 68 ° F 51% 29.83 pul 6 mi SSO 10.4 mph - -   Bruma
7:00 PM 82.4 ° F 85.4 ° F 68.0 ° F 62% 29.80 pul 6.2 mi SSO 10.4 mph - N/A   Parcialmente nublado
8:00 PM 82.4 ° F 84.6 ° F 66.2 ° F 58% 29.86 pul 6.2 mi SSO 12.7 mph - N/A   Parcialmente nublado
9:00 PM 80.6 ° F 82.3 ° F 64.4 ° F 58% 29.89 pul - SO 10.4 mph - N/A   Despejado
10:00 PM 78.8 ° F - 64.4 ° F 61% 29.92 pul 6.2 mi SO 11.5 mph - N/A   Muy nublado
11:00 PM 78.8 ° F - 66.2 ° F 65% 29.92 pul 6.2 mi Oeste 8.1 mph - N/A   Muy nublado